Location: Bednik
(45.3500°N, 16.3833°E)
Time: 08:05:31
(UTC+00:00)

Cosmos 2034 Rocket - Pass Details

Date: 08 August 2020
Orbit: 958 x 1001 km, 82.9° (Epoch: 26 September)

Event Time Altitude Azimuth Distance (km) Brightness Sun altitude
Exits shadow 23:44:01 76° 220° (SW) 1,011 3.8 -28.1°
Maximum altitude 23:44:29 83° 278° (W) 995 3.9 -28.0°
Drops below altitude 10° 23:50:50 10° 7° (N) 2,759 7.3 -27.8°
Sets 23:53:23 0° 8° (N) 3,718 8.3 -27.7°
